カタログに戻る

STARLINK-11529

運用中通信VLEO
NORAD 62599·PAYLOAD·🇺🇸 United States

打ち上げ Jan 13, 2025 から Cape Canaveral Space Force Station

Loading…

次のパス (今後24時間)

TLE

最新Source: CelesTrak SupGP

元期: Sep 15, 2026, 03:23 UTC

1 62599C 25008N   26258.14145833 -.00091413  00000+0 -70961-3 0  2581
2 62599  43.0009  64.1878 0001722 268.5428 331.3580 15.70896551    11

AllMySatでSTARLINK-11529をリアルタイム追跡

Download on the App Store